Terminal Aerodrome Forecast
Issued by NWS Austin/San Antonio, TX

Home | Current Version | Previous Version | Text Only | Print | Product List | Glossary On
Versions: 1 2 3 4 5 6 7 8 9 10 11 12 13 14 15 16 17 18
000
FTUS44 KEWX 272339
TAFDRT
TAF
KDRT 272339Z 2800/2824 13010KT P6SM SKC
     FM280800 12009KT P6SM OVC022
     FM281100 11009KT P6SM OVC007
     FM281700 13009KT P6SM OVC015
     FM282000 13013KT P6SM BKN250=

USA.gov is the U.S. government's official web portal to all federal, state and local government web resources and services.